Starlink 5415

operational
NORAD ID: 54796 Int'l Des: 2022-175 Owner: SPXS Country: US Constellation: starlink
LEOCIRCULAR

Über Starlink 5415

Beschreibung wird geladen...

Live-Position

3D-Globus wird geladen...

Nächste Überflüge

Höhenverlauf

Altitude vs Time

uPlot chart will show altitude changes over time

Zweizeiliger Elementsatz

1 54796U 22175AQ 26036.76577041 .00002077 00000-0 14850-3 0 9999
2 54796 53.2157 172.1825 0001003 92.1663 267.9444 15.08849104175316
Epoch: 5. Feb. 2026 • Age: 12 hours

Aktueller Status

Höhe 545.6 km
Geschwindigkeit 7.60 km/s
Subsatellitenpunkt 53.31°N, 38.59°E
Startdatum 17. Dez. 2022
Alter 3.1 years
Typ internet

Technische Details

Klassifizierung Payload
Masse 305.00 kg
Trockenmasse 290.00 kg
Gesamtmasse 305.00 kg
Länge 0.20 m
Durchmesser 2.80 m
Spannweite 9.00 m
Form Box + pan
Hersteller SPXS
Bus-Typ Starlink
Phasenstatus In Orbit
Besitzer/Staat SPXS/US

Große Konstellationen

Loading constellations...